User: anonymous   Login
Location: Unspecified
(0.0000°N, 0.0000°E)
Time: 09:57:09
(UTC+00:00)
Language:

ZHANGZHENG-1 - Orbit

View from above orbital plane
View from above orbital plane
View from above satellite
View from above satellite

Ground track
Ground track

The orbit data is extracted from the following two-line orbital elements,

1 43194U 18015C   19016.93951805 +.00000700 +00000-0 +34517-4 0  9994
2 43194 097.3734 145.7272 0017505 120.1591 240.1380 15.21050988053006
Epoch (UTC): 16 January 2019 22:32:54
Eccentricity: 0.0017505
inclination: 97.3734°
perigee height: 490 km
apogee height: 515 km
right ascension of ascending node: 145.7272°
argument of perigee: 120.1591°
revolutions per day: 15.21050988
mean anomaly at epoch: 240.1380°
orbit number at epoch: 5300

The dashed part of the orbit path shows where the satellite is in the earth's shadow,  

DLR